EW3857 Weather Reports


Display with metric or nautical units.
time (UTC)temp
F
wind
direction
speed
MPH
gust
MPH
rain 1hr
in
rain 24hr
in
rain mn
in
humidity
%
barometer
mb
20260505235427 73 166 5.0 6.0 0.00 0.00 0.00 64 1013.6
20260505234924 73 204 4.0 6.0 0.00 0.00 0.00 65 1013.7
20260505234421 73 210 2.0 2.0 0.00 0.00 0.00 65 1013.8
20260505233918 73 167 3.0 3.0 0.00 0.00 0.00 64 1013.9
20260505233416 73 211 5.0 7.0 0.00 0.00 0.00 63 1013.9
20260505232913 73 203 5.0 7.0 0.00 0.00 0.00 62 1014.1
20260505232411 73 212 3.0 3.0 0.00 0.00 0.00 64 1014.4
20260505231907 73 178 3.0 5.0 0.00 0.00 0.00 63 1014.1
20260505231405 73 160 5.0 6.0 0.00 0.00 0.00 63 1014.3
20260505230903 73 164 5.0 7.0 0.00 0.00 0.00 62 1014.4
20260505230400 73 185 2.0 2.0 0.00 0.00 0.00 62 1014.4
20260505225856 73 222 2.0 3.0 0.00 0.00 0.00 62 1014.5
20260505225354 73 199 3.0 6.0 0.00 0.00 0.00 62 1014.4
20260505224849 73 215 4.0 5.0 0.00 0.00 0.00 62 1014.4
20260505224347 73 203 5.0 7.0 0.00 0.00 0.00 60 1014.5
20260505223843 73 248 1.0 1.0 0.00 0.00 0.00 63 1014.6
20260505223340 73 226 3.0 5.0 0.00 0.00 0.00 62 1014.1
20260505222836 74 189 3.0 3.0 0.00 0.00 0.00 62 1014.3
20260505222333 74 146 5.0 7.0 0.00 0.00 0.00 61 1014.2
20260505221830 74 188 3.0 5.0 0.00 0.00 0.00 59 1014.3
20260505221326 74 238 3.0 5.0 0.00 0.00 0.00 59 1014.2
20260505220824 74 202 5.0 7.0 0.00 0.00 0.00 58 1014.2
20260505220320 74 231 3.0 5.0 0.00 0.00 0.00 59 1014.3
20260505215819 74 198 3.0 5.0 0.00 0.00 0.00 58 1014.3
20260505215316 74 195 3.0 3.0 0.00 0.00 0.00 59 1014.1
20260505214814 74 201 4.0 6.0 0.00 0.00 0.00 60 1014.3
20260505214311 74 193 6.0 9.0 0.00 0.00 0.00 59 1014.3
20260505213808 75 154 3.0 5.0 0.00 0.00 0.00 58 1014.3
20260505213306 74 188 4.0 5.0 0.00 0.00 0.00 58 1014.2
20260505212801 74 181 6.0 8.0 0.00 0.00 0.00 58 1014.1
20260505212259 74 163 3.0 5.0 0.00 0.00 0.00 59 1014.1
20260505211755 73 194 1.0 2.0 0.00 0.00 0.00 61 1014.3
20260505211253 73 203 3.0 3.0 0.00 0.00 0.00 60 1014.0
20260505210749 73 144 6.0 7.0 0.00 0.00 0.00 59 1014.1
20260505210246 73 142 4.0 6.0 0.00 0.00 0.00 61 1014.1
20260505205743 73 240 1.0 1.0 0.00 0.00 0.00 60 1014.3
20260505205242 73 172 1.0 2.0 0.00 0.00 0.00 60 1014.1
20260505204738 74 171 4.0 6.0 0.00 0.00 0.00 58 1014.1
20260505204236 75 201 3.0 5.0 0.00 0.00 0.00 59 1014.0
20260505203733 74 162 7.0 8.0 0.00 0.00 0.00 56 1014.3
20260505203230 73 165 4.0 5.0 0.00 0.00 0.00 59 1014.1
20260505202725 74 168 4.0 5.0 0.00 0.00 0.00 58 1014.1
20260505202221 74 208 2.0 3.0 0.00 0.00 0.00 57 1014.3
20260505201718 73 234 2.0 2.0 0.00 0.00 0.00 57 1014.3
20260505201216 74 247 0.0 1.0 0.00 0.00 0.00 54 1014.5
20260505200714 74 192 4.0 6.0 0.00 0.00 0.00 56 1014.1
20260505200211 74 144 3.0 3.0 0.00 0.00 0.00 55 1014.1
20260505195706 74 229 3.0 3.0 0.00 0.00 0.00 56 1014.5
20260505195204 75 203 4.0 5.0 0.00 0.00 0.00 52 1014.8
20260505194701 76 223 1.0 1.0 0.00 0.00 0.00 50 1015.0
20260505194157 76 238 1.0 1.0 0.00 0.00 0.00 51 1015.3
20260505193654 76 257 0.0 0.0 0.00 0.00 0.00 50 1015.3
20260505193151 75 191 2.0 3.0 0.00 0.00 0.00 52 1015.3
20260505192649 75 175 6.0 8.0 0.00 0.00 0.00 52 1015.5
20260505192147 76 204 3.0 3.0 0.00 0.00 0.00 53 1015.4
20260505191645 76 162 3.0 5.0 0.00 0.00 0.00 50 1015.5
20260505191143 78 164 5.0 6.0 0.00 0.00 0.00 48 1015.7
20260505190638 77 227 2.0 3.0 0.00 0.00 0.00 48 1015.6
20260505190138 76 214 4.0 6.0 0.00 0.00 0.00 51 1015.8
20260505185635 75 129 3.0 3.0 0.00 0.00 0.00 51 1015.8
20260505185132 75 158 4.0 5.0 0.00 0.00 0.00 49 1015.9
20260505184628 77 192 3.0 5.0 0.00 0.00 0.00 51 1015.9
20260505184125 76 223 3.0 3.0 0.00 0.00 0.00 53 1015.8
20260505183622 77 219 3.0 5.0 0.00 0.00 0.00 46 1016.1
20260505183120 77 200 3.0 5.0 0.00 0.00 0.00 47 1016.1
20260505182616 77 212 6.0 7.0 0.00 0.00 0.00 49 1016.1
20260505182113 76 109 3.0 5.0 0.00 0.00 0.00 49 1015.9
20260505181609 78 154 7.0 7.0 0.00 0.00 0.00 51 1015.9
20260505181107 76 223 3.0 5.0 0.00 0.00 0.00 50 1015.8
20260505180603 75 183 3.0 3.0 0.00 0.00 0.00 47 1016.1
20260505180100 76 209 4.0 6.0 0.00 0.00 0.00 45 1016.3
20260505175556 76 236 2.0 2.0 0.00 0.00 0.00 46 1016.2
20260505175052 75 224 6.0 7.0 0.00 0.00 0.00 48 1016.2
20260505174550 75 202 4.0 5.0 0.00 0.00 0.00 48 1016.2
20260505174045 75 236 5.0 6.0 0.00 0.00 0.00 51 1016.3
20260505173537 76 221 4.0 5.0 0.00 0.00 0.00 51 1016.4
20260505173033 75 147 3.0 3.0 0.00 0.00 0.00 49 1016.3
20260505172531 75 183 4.0 8.0 0.00 0.00 0.00 50 1016.6
20260505172027 74 156 8.0 11.0 0.00 0.00 0.00 50 1016.4
20260505171523 75 185 6.0 8.0 0.00 0.00 0.00 48 1016.4
20260505171020 76 166 5.0 6.0 0.00 0.00 0.00 49 1016.4
20260505170516 77 186 5.0 6.0 0.00 0.00 0.00 51 1016.7
20260505170013 77 243 2.0 2.0 0.00 0.00 0.00 48 1016.6
20260505165508 76 223 2.0 2.0 0.00 0.00 0.00 52 1016.8
20260505165004 75 157 3.0 3.0 0.00 0.00 0.00 51 1016.6
20260505164500 75 188 4.0 5.0 0.00 0.00 0.00 50 1016.4
20260505163958 75 229 5.0 7.0 0.00 0.00 0.00 51 1017.0
20260505163457 75 213 3.0 5.0 0.00 0.00 0.00 50 1016.8
20260505162956 74 228 4.0 5.0 0.00 0.00 0.00 51 1016.7
20260505162451 73 164 3.0 9.0 0.00 0.00 0.00 57 1016.7
20260505161948 74 242 3.0 3.0 0.00 0.00 0.00 53 1016.8
20260505161444 73 209 3.0 5.0 0.00 0.00 0.00 58 1016.8
20260505160942 73 225 6.0 7.0 0.00 0.00 0.00 57 1016.9
20260505160440 73 206 3.0 7.0 0.00 0.00 0.00 57 1016.7
20260505152916 70 159 2.0 3.0 0.00 0.00 0.00 66 1017.0
20260505152408 70 218 1.0 2.0 0.00 0.00 0.00 63 1016.9
20260505151908 69 171 2.0 2.0 0.00 0.00 0.00 69 1017.1
20260505151404 68 152 2.0 2.0 0.00 0.00 0.00 71 1017.0
20260505150901 68 132 4.0 5.0 0.00 0.00 0.00 72 1017.2
20260505150358 68 154 2.0 3.0 0.00 0.00 0.00 73 1017.2
20260505140317 65 163 4.0 5.0 0.00 0.00 0.00 73 1017.6
20260505130240 61 175 3.0 3.0 0.00 0.00 0.00 81 1017.2
20260505124731 60 171 2.0 2.0 0.00 0.00 0.00 82 1017.2
20260505124228 60 236 1.0 1.0 0.00 0.00 0.00 82 1017.3
20260505123723 60 145 2.0 2.0 0.00 0.00 0.00 84 1017.2
20260505123220 60 293 0.0 0.0 0.00 0.00 0.00 83 1017.2
20260505122717 59 313 1.0 1.0 0.00 0.00 0.00 83 1017.1
20260505122214 58 310 1.0 1.0 0.00 0.00 0.00 84 1017.1
20260505121710 58 350 2.0 2.0 0.00 0.00 0.00 85 1017.0
20260505121207 57 278 0.0 1.0 0.00 0.00 0.00 86 1017.3
20260505120704 56 277 0.0 1.0 0.00 0.00 0.00 88 1016.9
20260505120159 55 272 0.0 1.0 0.00 0.00 0.00 89 1016.8
20260505115653 54 272 1.0 2.0 0.00 0.00 0.00 89 1016.4
20260505115151 54 274 1.0 1.0 0.00 0.00 0.00 90 1016.4
20260505114648 54 268 1.0 1.0 0.00 0.00 0.00 91 1016.5
20260505114144 54 276 2.0 2.0 0.00 0.00 0.00 91 1016.3
20260505113641 53 276 1.0 1.0 0.00 0.00 0.00 90 1016.3
20260505113137 53 276 0.0 0.0 0.00 0.00 0.00 90 1016.2
20260505112633 54 276 0.0 0.0 0.00 0.00 0.00 90 1016.3
20260505112132 54 275 0.0 0.0 0.00 0.00 0.00 90 1015.9
20260505111625 54 275 0.0 0.0 0.00 0.00 0.00 90 1015.8
20260505111122 54 275 0.0 0.0 0.00 0.00 0.00 90 1015.6
20260505110618 54 269 0.0 0.0 0.00 0.00 0.00 89 1015.6
20260505110115 54 269 0.0 0.0 0.00 0.00 0.00 89 1015.6
20260505102051 56 260 0.0 0.0 0.00 0.00 0.00 81 1015.2
20260505101549 57 235 0.0 1.0 0.00 0.00 0.00 80 1015.1
20260505101045 57 248 0.0 0.0 0.00 0.00 0.00 80 1015.1
20260505100542 57 220 2.0 2.0 0.00 0.00 0.00 79 1015.2
20260505100039 57 222 2.0 2.0 0.00 0.00 0.00 79 1015.0
20260505095535 57 216 2.0 2.0 0.00 0.00 0.00 79 1015.2
20260505095032 57 229 2.0 2.0 0.00 0.00 0.00 78 1015.4
20260505094528 57 244 1.0 2.0 0.00 0.00 0.00 78 1015.7
20260505094024 57 217 2.0 2.0 0.00 0.00 0.00 79 1015.5
20260505093521 57 258 0.0 1.0 0.00 0.00 0.00 78 1015.3
20260505093019 57 221 2.0 2.0 0.00 0.00 0.00 79 1015.1
20260505092516 57 233 2.0 2.0 0.00 0.00 0.00 79 1015.3
20260505092014 56 258 0.0 0.0 0.00 0.00 0.00 80 1015.3
20260505091511 56 264 0.0 0.0 0.00 0.00 0.00 80 1015.5
20260505091009 56 254 1.0 1.0 0.00 0.00 0.00 81 1015.4
20260505090506 56 229 1.0 1.0 0.00 0.00 0.00 82 1015.3
20260505090004 54 257 0.0 1.0 0.00 0.00 0.00 86 1015.3
20260505085502 53 258 0.0 0.0 0.00 0.00 0.00 90 1015.6
20260505085000 52 273 0.0 0.0 0.00 0.00 0.00 92 1015.3
20260505084458 52 268 0.0 0.0 0.00 0.00 0.00 92 1015.7
20260505083955 52 270 0.0 0.0 0.00 0.00 0.00 92 1015.5
20260505083452 52 270 0.0 0.0 0.00 0.00 0.00 91 1015.7
20260505082948 52 270 0.0 0.0 0.00 0.00 0.00 91 1015.5
20260505082444 52 270 0.0 0.0 0.00 0.00 0.00 91 1015.6
20260505081942 52 270 0.0 0.0 0.00 0.00 0.00 90 1015.5
20260505081438 52 270 0.0 0.0 0.00 0.00 0.00 90 1015.6
20260505080935 52 270 0.0 0.0 0.00 0.00 0.00 90 1015.7
20260505080431 53 270 0.0 0.0 0.00 0.00 0.00 90 1015.7
20260505075926 53 271 0.0 0.0 0.00 0.00 0.00 90 1015.9
20260505075424 53 272 0.0 0.0 0.00 0.00 0.00 90 1016.0
20260505074921 53 266 0.0 0.0 0.00 0.00 0.00 90 1016.0
20260505074418 53 270 0.0 1.0 0.00 0.00 0.00 91 1016.0
20260505073915 53 266 0.0 0.0 0.00 0.00 0.00 90 1015.8
20260505073413 53 266 0.0 0.0 0.00 0.00 0.00 90 1015.9
20260505072910 53 262 0.0 0.0 0.00 0.00 0.00 89 1015.6
20260505072406 53 264 0.0 0.0 0.00 0.00 0.00 89 1015.5
20260505071902 53 273 1.0 1.0 0.00 0.00 0.00 89 1015.6
20260505071358 53 277 1.0 1.0 0.00 0.00 0.00 89 1015.5
20260505070857 53 272 1.0 1.0 0.00 0.00 0.00 89 1015.7
20260505070353 53 268 1.0 1.0 0.00 0.00 0.00 89 1015.7
20260505065848 53 274 1.0 1.0 0.00 0.00 0.00 89 1015.8
20260505065345 53 272 0.0 0.0 0.00 0.00 0.00 89 1015.7
20260505064842 53 272 0.0 0.0 0.00 0.00 0.00 89 1015.7
20260505064339 53 270 0.0 0.0 0.00 0.00 0.00 89 1015.7
20260505063838 54 271 0.0 0.0 0.00 0.00 0.00 88 1015.6
20260505063333 54 273 0.0 0.0 0.00 0.00 0.00 88 1015.8
20260505062830 54 266 0.0 0.0 0.00 0.00 0.00 88 1015.9
20260505062327 54 274 1.0 1.0 0.00 0.00 0.00 88 1015.7
20260505061824 54 272 0.0 0.0 0.00 0.00 0.00 88 1015.7
20260505061322 54 273 1.0 1.0 0.00 0.00 0.00 88 1015.9
20260505060820 54 271 0.0 0.0 0.00 0.00 0.00 89 1015.9
20260505060316 54 269 1.0 1.0 0.00 0.00 0.00 88 1015.9
20260505055812 54 274 1.0 1.0 0.00 0.00 0.00 88 1015.9
20260505055308 54 269 1.0 1.0 0.00 0.00 0.00 88 1016.1
20260505054806 55 270 0.0 1.0 0.00 0.00 0.00 89 1016.1
20260505054303 55 273 2.0 2.0 0.00 0.00 0.00 89 1016.0
20260505053801 55 269 0.0 0.0 0.00 0.00 0.00 89 1015.9
20260505053258 55 281 1.0 1.0 0.00 0.00 0.00 88 1016.0
20260505052755 55 276 0.0 0.0 0.00 0.00 0.00 88 1015.9
20260505052252 55 276 0.0 0.0 0.00 0.00 0.00 87 1016.0
20260505051748 55 276 0.0 1.0 0.00 0.00 0.00 87 1016.3
20260505051246 55 275 2.0 2.0 0.00 0.00 0.00 86 1016.0
20260505050744 55 271 0.0 0.0 0.00 0.00 0.00 86 1016.0
20260505050243 55 273 0.0 1.0 0.00 0.00 0.00 86 1016.1
20260505041712 56 268 0.0 0.0 0.00 0.00 0.00 85 1016.1
20260505041209 56 268 0.0 0.0 0.00 0.00 0.00 85 1015.9
20260505040706 56 270 0.0 0.0 0.00 0.00 0.00 86 1015.9
20260505040204 56 270 0.0 0.0 0.00 0.00 0.00 85 1016.1
20260505035700 57 270 0.0 0.0 0.00 0.00 0.00 85 1016.2
20260505035156 57 270 0.0 0.0 0.00 0.00 0.00 85 1016.2
20260505034653 57 270 0.0 0.0 0.00 0.00 0.00 85 1015.9
20260505034150 57 270 0.0 0.0 0.00 0.00 0.00 85 1016.0
20260505033646 57 270 0.0 0.0 0.00 0.00 0.00 85 1016.0
20260505033145 57 271 0.0 0.0 0.00 0.00 0.00 85 1016.0
20260505032642 58 272 0.0 0.0 0.00 0.00 0.00 84 1016.1
20260505032133 57 273 0.0 0.0 0.00 0.00 0.00 84 1015.8
20260505031630 58 273 0.0 0.0 0.00 0.00 0.00 83 1016.0
20260505031126 58 272 0.0 0.0 0.00 0.00 0.00 83 1015.9
20260505030624 58 271 0.0 0.0 0.00 0.00 0.00 83 1015.9
20260505030119 58 271 0.0 0.0 0.00 0.00 0.00 82 1015.8
20260505025615 58 271 0.0 0.0 0.00 0.00 0.00 82 1016.2
20260505025114 59 271 0.0 0.0 0.00 0.00 0.00 81 1016.1
20260505024611 59 271 0.0 0.0 0.00 0.00 0.00 80 1016.1
20260505024108 59 275 0.0 0.0 0.00 0.00 0.00 80 1016.1
20260505023606 59 275 0.0 0.0 0.00 0.00 0.00 80 1015.9
20260505023103 60 277 1.0 1.0 0.00 0.00 0.00 79 1015.8
20260505022600 60 273 1.0 1.0 0.00 0.00 0.00 79 1015.8
20260505022057 60 274 0.0 0.0 0.00 0.00 0.00 78 1015.7
20260505021554 60 274 1.0 2.0 0.00 0.00 0.00 78 1015.7
20260505021051 60 278 1.0 1.0 0.00 0.00 0.00 77 1015.6
20260505020550 61 273 1.0 1.0 0.00 0.00 0.00 77 1015.5
20260505020048 61 278 1.0 1.0 0.00 0.00 0.00 76 1015.7
20260505015545 61 271 1.0 1.0 0.00 0.00 0.00 77 1015.8
20260505015041 62 275 2.0 2.0 0.00 0.00 0.00 76 1015.5
20260505014538 62 273 1.0 1.0 0.00 0.00 0.00 76 1015.6
20260505014035 62 273 1.0 1.0 0.00 0.00 0.00 76 1015.4
20260505013532 63 270 0.0 0.0 0.00 0.00 0.00 74 1015.4
20260505013030 63 270 0.0 0.0 0.00 0.00 0.00 73 1015.5
20260505012528 64 274 0.0 1.0 0.00 0.00 0.00 71 1015.5
20260505012025 64 277 0.0 0.0 0.00 0.00 0.00 70 1015.3
20260505011520 64 271 0.0 0.0 0.00 0.00 0.00 69 1015.4
20260505011018 65 268 0.0 0.0 0.00 0.00 0.00 66 1015.3
20260505010513 66 268 0.0 0.0 0.00 0.00 0.00 65 1015.0
20260505010010 66 266 0.0 1.0 0.00 0.00 0.00 65 1015.2
20260505005506 67 269 1.0 1.0 0.00 0.00 0.00 63 1015.1
20260505005004 67 267 1.0 1.0 0.00 0.00 0.00 62 1015.0
20260505004501 68 267 1.0 1.0 0.00 0.00 0.00 58 1014.8
20260505003957 69 269 0.0 0.0 0.00 0.00 0.00 54 1014.8
20260505003455 69 255 0.0 0.0 0.00 0.00 0.00 52 1014.8
20260505002950 70 255 0.0 0.0 0.00 0.00 0.00 54 1014.9
20260505002447 70 261 0.0 0.0 0.00 0.00 0.00 50 1014.9
20260505001945 71 264 0.0 0.0 0.00 0.00 0.00 50 1014.7
20260505001442 71 264 0.0 0.0 0.00 0.00 0.00 50 1014.8
20260505000939 72 264 0.0 0.0 0.00 0.00 0.00 50 1014.8
20260505000437 72 264 0.0 0.0 0.00 0.00 0.00 49 1014.7
20260504235934 73 254 1.0 1.0 0.00 0.00 0.00 49 1014.7